This is the latest recevied weather packets stored in our database for station/object K1WJY. If no packets are shown the sender has not sent any weather packets the latest 10 day(s).
| Time | Temp. | Humidity | Pressure | Rain* | Wind** | Luminosity | Snow |
|---|---|---|---|---|---|---|---|
| 1777793949 | 6.11° C | 99% | 1011.1 hPa | 3.56 mm | - | 0 W/m² | - |
| 1777793646 | 6.11° C | 99% | 1010.9 hPa | 1.78 mm | - | 0 W/m² | - |
| 1777793344 | 6.11° C | 99% | 1011.2 hPa | 1.27 mm | - | 0 W/m² | - |
| 1777793041 | 6.11° C | 99% | 1011.1 hPa | 1.78 mm | - | 0 W/m² | - |
| 1777792737 | 6.11° C | 99% | 1011.3 hPa | 3.05 mm | - | 0 W/m² | - |
| 1777792435 | 6.11° C | 99% | 1011.3 hPa | 3.05 mm | - | 0 W/m² | - |
| 1777792131 | 6.11° C | 99% | 1011.3 hPa | 1.78 mm | - | 0 W/m² | - |
| 1777791829 | 6.11° C | 99% | 1011.5 hPa | 1.27 mm | - | 0 W/m² | - |
| 1777791527 | 6.11° C | 99% | 1011.2 hPa | 3.05 mm | - | 0 W/m² | - |
| 1777791224 | 6.11° C | 99% | 1011.4 hPa | 3.05 mm | - | 0 W/m² | - |
| 1777790921 | 6.11° C | 99% | 1011.6 hPa | 3.05 mm | - | 0 W/m² | - |
| 1777790619 | 6.11° C | 99% | 1011.8 hPa | 1.78 mm | - | 0 W/m² | - |
| 1777790315 | 6.11° C | 99% | 1011.6 hPa | 1.27 mm | - | 0 W/m² | - |
| 1777790014 | 6.11° C | 99% | 1011.8 hPa | 3.05 mm | - | 0 W/m² | - |
| 1777789712 | 6.11° C | 99% | 1011.7 hPa | 3.56 mm | - | 0 W/m² | - |
| 1777789410 | 6.11° C | 99% | 1012.1 hPa | 1.78 mm | - | 0 W/m² | - |
| 1777789107 | 6.11° C | 99% | 1011.8 hPa | 1.27 mm | - | 0 W/m² | - |
| 1777788804 | 6.11° C | 99% | 1012 hPa | 1.27 mm | - | 0 W/m² | - |
| 1777788500 | 6.11° C | 99% | 1011.9 hPa | 1.78 mm | - | 0 W/m² | - |
| 1777788194 | 6.11° C | 99% | 1012.1 hPa | 1.78 mm | - | 0 W/m² | - |
| 1777787890 | 6.11° C | 99% | 1012.1 hPa | 1.27 mm | - | 0 W/m² | - |
| 1777787587 | 6.11° C | 99% | 1012.1 hPa | 1.27 mm | - | 0 W/m² | - |
| 1777787281 | 6.11° C | 99% | 1012.3 hPa | 0 mm | - | 0 W/m² | - |
| 1777786978 | 6.11° C | 99% | 1012.2 hPa | 0 mm | - | 0 W/m² | - |
| 1777786676 | 6.11° C | 99% | 1012.2 hPa | 0 mm | - | 0 W/m² | - |
* Rain latest hour (hover to see other rain measurements)
** Current wind speed in m/s (hover to see current wind gust speed)